SCP
0 0 0 0 0 0 0 0 0 0 0 0 0 0 0 0 0 0 0 0 0 0 0 0 0 0 0 0 0 0 0 0 0 0 0 0 0 0 0 0 0 0 0 0
0 0 0 0 0 0 0 0 0 0 0 0 0 0 0 0 0 0 0 0 0 0 0 0 0 0 0 0 0 0 0 0 0 0 0 0 0 0 0 0 0 0 0 0
0 0 0 0 0 0 0 0 0 0 0 -0 0 -0 0 0 0 0 0 0 0 0 0 0 0 0 0 0 0 0 0 0 0 0 0 0 0 0 0 0 0 0 0 0
0 0 0 0 0 0 0 0 0 0 0 0 0 0 0 0 0 0 0 0 0 0 0 0 0 0 0 0 0 0 0 0 0 0 0 0 0 0 0 0 0 0 0 0
0 0 0 0 0 0 0 0 0 0 0 0 0 0 0 0 0 0 0 0 0 0 0 0 0 0 0 0 0 0 0 0 0 0 0 0 0 0 0 0 0 0 0 0
0 0 0 0 0 0 0 0 0 0 0 0 0 0 0 0 0 0 0 0 -0 0 0 0 0 0 0 0 0 0 0 0 0 0 0 0 0 0 0 0 0 0 0 0
0 0 0 0 0 0 0 0 0 0 0 0 0 0 0 0 0 0 0 0 -0 -0 0 0 0 0 0 0 0 0 0 0 0 0 0 0 0 0 0 0 0 0 0 0
0 0 0 0 0 0 0 0 0 0 0 0 0 0 0 0 0 0 0 0 0 -0 0 0 0 0 0 0 0 0 0 0 0 0 0 0 0 0 0 0 0 0 0 0
0 0 0 0 0 0 0 0 0 0 0 0 0 0 0 0 0 0 0 0 0 0 -0 0 0 0 0 0 0 0 0 0 0 0 0 0 0 0 0 0 0 0 0 0
0 0 0 0 0 0 0 0 0 0 0 0 0 0 0 0 0 0 0 0 0 0 0 0 0 0 0 0 0 0 0 0 0 0 0 0 0 0 0 0 0 0 0 0
0 0 0 0 0 0 0 0 0 0 0 0 0 0 0 0 0 0 0 0 0 0 0 0 0 0 0 0 0 0 0 0 0 0 0 0 0 0 0 0 0 0 0 0
0 0 0 0 0 0 0 0 0 0 0 0 0 0 0 0 0 0 0 0 0 0 0 0 0 0 0 0 0 0 0 0 0 0 0 0 0 0 0 0 0 0 0 0
0 0 0 0 0 0 0 0 0 0 0 0 0 0 0 0 0 0 0 -0 0 0 0 0 0 0 0 0 0 0 0 0 0 0 0 0 0 0 0 0 0 0 0 0
0 0 0 0 0 0 0 0 0 0 0 0 0 0 0 0 0 0 0 0 0 0 0 0 0 0 0 0 0 0 0 0 0 0 0 0 0 0 0 0 0 0 0 0
0 0 0 0 0 0 0 0 0 0 0 0 0 0 0 0 0 0 0 0 0 0 0 0 0 0 0 0 0 0 0 0 0 0 0 0 0 0 0 0 0 0 0 0
0 0 0 0 0 0 0 0 0 0 0 0 0 0 0 0 0 0 0 0 0 0 0 0 0 0 0 0 0 0 0 0 0 0 0 0 0 0 0 0 0 0 0 0
0 0 0 0 0 0 0 0 -0 0 0 0 0 0 0 0 0 0 0 0 0 0 0 0 0 0 0 0 0 0 0 0 0 0 0 0 0 0 0 0 0 0 0 0
0 0 0 0 0 0 0 0 0 0 0 0 0 0 -0 -0 0 0 0 0 0 0 0 0 0 0 0 0 0 0 0 0 0 0 0 0 0 0 0 0 0 0 0 0
0 0 0 0 0 0 0 0 0 0 0 0 0 0 0 0 0 0 0 0 0 0 0 0 0 0 0 0 0 0 0 0 0 0 0 0 0 0 0 0 0 0 0 0
0 0 0 0 0 0 0 0 0 0 0 0 0 0 0 -0 0 0 0 -0 0 0 0 0 0 0 0 0 0 0 0 0 0 0 0 0 0 0 0 0 0 0 0 0
0 0 0 0 0 0 0 0 0 0 0 0 0 0 -0 0 0 0 0 0 0 0 0 0 0 0 0 0 -0 0 0 0 0 0 0 0 0 0 0 0 0 0 0 0
0 0 0 0 0 0 0 0 0 0 0 0 0 0 -0 0 0 0 -0 0 -0 0 0 0 0 0 0 0 -0 0 0 0 0 0 0 0 0 0 0 0 -0 0 0 0
0 0 0 0 0 0 0 0 0 0 0 0 0 0 -0 0 0 0 0 0 -0 0 0 0 0 0 0 0 0 -0 0 0 0 0 0 0 0 0 0 0 -0 0 0 0
0 0 0 0 0 0 0 0 0 0 0 0 0 0 0 0 0 0 0 0 0 -0 0 0 0 0 0 0 0 0 0 0 0 -0 -0 -0 0 0 0 0 0 0 0 0
0 0 0 0 0 0 0 0 0 0 0 0 0 0 0 0 0 0 0 0 0 -0 -0 0 0 0 0 0 0 0 0 0 0 -0 -0 -0 -0 0 0 0 0 0 0 -0
0 0 0 0 0 0 0 0 0 0 0 0 0 0 0 0 0 0 0 0 0 -0 -0 0 0 0 0 0 0 0 0 0 0 -0 -0 -0 -0 -0 0 0 0 0 0 0
Wind_Speed_500mb
4 7 15 9 6 7 9 13 22 22 11 13 19 39 53 44 49 49 39 28 24 22 23 24 22 18 13 9 9 12 24 40 47 48 44 44 49 47 46 46 52 56 59 50
7 13 7 5 1 5 8 15 13 16 5 9 25 49 54 42 20 12 11 10 19 24 23 22 19 13 10 7 6 18 44 48 35 35 37 41 43 51 48 51 55 65 70 66
15 6 7 3 6 10 14 14 11 11 20 15 25 23 16 6 9 11 12 11 17 20 21 20 18 15 13 13 20 35 55 69 56 53 61 70 76 81 83 85 85 86 82 81
9 8 8 9 12 8 14 6 3 11 15 7 11 12 21 7 12 15 20 23 21 20 17 17 16 18 18 28 36 47 63 77 72 63 69 75 80 82 85 80 78 75 74 92
8 7 9 12 6 9 5 2 7 10 5 7 4 7 15 5 8 15 22 29 28 25 21 19 18 20 26 39 54 69 82 89 72 64 65 70 76 83 84 80 82 84 90 90
2 2 4 6 2 3 3 8 7 3 4 7 8 7 13 8 5 10 10 26 30 26 24 23 21 26 34 40 70 79 67 69 67 67 70 73 77 80 79 77 76 74 74 77
8 9 7 6 7 6 6 9 5 6 5 5 11 6 23 19 5 4 10 11 15 20 19 18 23 21 35 63 64 64 63 68 68 67 68 68 73 77 80 79 77 72 72 72
7 8 11 11 4 4 10 4 6 11 8 8 4 13 9 2 5 12 17 15 13 18 22 26 20 30 56 63 64 63 65 67 65 60 62 65 73 74 73 70 68 70 68 66
5 5 8 4 3 6 9 7 5 3 4 6 10 12 25 17 22 23 22 19 23 14 14 21 27 43 58 61 64 64 63 61 61 72 72 68 67 65 72 76 78 76 78 83
6 7 4 7 1 3 6 3 4 5 9 11 9 8 21 9 2 8 7 2 3 4 25 26 41 58 57 59 62 56 55 63 73 69 61 60 64 63 67 71 73 74 81 75
3 2 7 3 10 3 5 6 8 6 6 9 16 11 3 9 13 6 8 10 11 31 37 40 47 46 48 55 50 56 64 66 64 66 65 61 62 64 67 67 69 70 71 70
3 2 7 11 7 3 2 4 7 8 6 7 7 21 22 13 9 6 17 18 31 33 41 44 40 42 45 46 51 71 70 63 66 67 64 60 61 63 63 64 65 64 71 69
9 5 5 8 4 5 10 13 13 8 5 23 15 18 9 7 14 28 37 35 29 45 41 40 39 39 42 50 67 73 66 67 67 65 64 62 62 63 63 62 62 63 65 66
4 6 13 23 17 5 8 17 22 20 10 19 34 54 51 46 47 42 48 58 50 38 43 40 36 43 45 65 71 68 67 69 65 64 62 62 64 63 64 62 60 60 60 63
2 12 13 25 28 25 27 30 29 30 38 21 50 45 49 50 48 55 66 45 43 55 52 38 40 44 56 69 74 71 70 69 61 60 59 57 57 56 57 60 63 64 60 62
7 6 2 9 16 18 28 38 35 42 48 47 58 61 55 71 52 46 50 46 50 64 56 39 42 48 59 68 71 72 69 63 57 56 53 52 53 55 57 61 60 56 53 53
14 8 7 12 5 6 19 22 38 30 36 37 39 47 37 51 42 50 52 56 48 44 36 41 44 47 56 63 68 68 65 57 54 51 49 49 50 50 52 52 48 46 41 26
13 12 7 9 2 21 17 5 15 24 33 36 40 41 36 44 53 44 35 32 32 30 44 43 42 45 53 60 64 63 59 52 50 48 47 45 45 45 49 47 43 38 35 28
27 15 8 10 19 31 46 35 27 20 25 29 35 30 26 27 22 3 14 28 35 43 48 46 41 41 51 57 62 61 58 52 49 50 45 43 41 44 42 42 41 36 32 28
17 27 15 15 15 18 21 10 13 12 19 24 24 19 13 14 17 21 37 59 59 53 49 44 38 38 46 53 58 58 55 52 51 48 44 41 38 38 37 34 32 32 33 32
12 10 33 29 22 19 23 22 19 11 17 26 29 19 13 9 18 42 60 62 60 55 50 43 40 37 39 46 53 54 53 52 45 41 39 37 34 31 29 28 26 24 27 35
24 20 17 20 20 35 25 24 19 17 13 14 11 9 23 35 47 52 60 61 58 59 52 46 42 35 33 38 49 51 51 49 42 35 34 33 32 28 25 26 25 27 29 36
16 25 18 22 19 20 19 18 37 22 17 23 34 48 60 50 66 58 61 72 71 58 55 43 45 38 28 28 37 45 46 43 41 32 30 30 29 26 26 28 29 31 33 38
21 33 24 24 39 46 52 43 38 39 47 56 62 70 56 51 60 65 65 68 67 54 56 46 35 39 29 22 23 31 40 37 37 32 26 29 36 34 35 37 35 36 41 35
24 24 37 38 52 53 57 55 51 55 61 64 67 58 51 55 58 59 65 60 64 53 59 52 39 36 34 25 17 18 26 35 36 31 27 31 36 42 47 51 50 51 51 48
42 44 30 32 33 37 43 52 56 55 51 48 48 56 58 63 73 76 72 65 64 50 50 65 49 37 36 31 25 15 15 20 28 28 28 33 37 44 51 54 58 58 57 57
Wind_Direction_500mb
60 263 235 12 342 318 298 282 282 292 32 308 275 284 287 288 282 279 273 260 241 218 190 187 188 202 211 249 272 300 314 312 298 288 284 277 272 268 266 260 261 263 266 257
209 240 57 78 141 263 260 288 289 289 15 302 300 294 284 288 264 261 269 199 177 174 181 181 181 186 200 196 274 313 330 323 294 283 277 268 264 258 253 252 251 255 258 256
257 72 124 222 227 263 252 255 295 282 319 265 308 272 279 179 210 233 219 199 183 180 182 186 194 198 200 247 284 300 324 330 312 294 284 279 275 271 268 262 259 258 257 256
266 109 202 227 252 227 277 46 281 297 337 302 13 287 293 265 244 205 206 207 205 204 201 200 209 216 235 265 286 299 313 317 310 295 285 279 273 270 268 266 264 264 264 262
86 179 202 238 265 199 11 348 310 310 296 323 177 229 276 166 228 217 205 209 212 216 218 226 238 250 263 284 300 308 305 305 298 289 282 277 275 275 274 269 265 261 257 252
297 119 240 343 97 260 61 275 226 245 168 242 143 226 286 246 146 156 170 204 214 219 225 233 251 279 293 304 311 308 299 298 295 292 287 280 276 275 275 273 270 267 263 258
172 197 145 194 225 179 244 280 276 249 217 274 146 212 250 282 169 194 168 177 217 216 227 256 278 284 306 315 312 306 303 299 297 292 286 281 279 278 277 275 273 271 268 262
236 231 187 151 265 10 187 297 298 289 287 348 163 240 243 338 345 244 235 234 238 236 247 272 278 299 312 314 311 309 305 298 295 293 289 282 278 276 275 273 269 266 266 266
247 182 117 76 344 308 133 204 55 293 142 271 233 263 268 275 230 243 231 250 249 246 252 265 286 309 312 309 311 310 304 302 297 291 292 288 285 282 277 274 273 274 272 271
43 276 27 90 222 168 283 30 237 172 282 273 232 262 261 263 86 121 151 176 224 295 317 294 299 308 309 312 313 310 303 298 298 295 294 291 290 287 283 284 279 274 266 264
197 248 109 172 198 240 159 227 221 285 241 275 298 268 15 24 21 25 64 356 338 320 313 302 304 308 311 316 314 306 303 304 302 305 308 303 296 293 294 291 287 283 278 271
134 229 231 239 96 47 56 297 241 261 214 254 301 265 307 60 72 6 302 294 304 312 312 308 308 310 316 316 312 314 319 308 315 319 314 312 309 307 304 298 295 289 284 277
174 193 278 184 178 185 223 195 217 224 263 255 263 263 110 4 307 285 293 278 303 313 316 312 310 316 322 318 322 327 321 318 324 323 318 321 318 316 308 306 303 298 291 284
184 206 241 261 317 40 210 207 213 207 234 272 247 282 277 280 277 296 303 316 311 306 315 309 311 322 323 327 332 329 325 329 329 324 327 328 323 318 317 314 308 301 294 287
156 250 231 259 277 282 266 263 246 225 238 247 267 264 287 287 298 301 303 303 311 311 313 316 321 324 330 338 336 333 332 334 334 332 333 330 327 327 325 323 318 312 300 288
174 250 137 262 247 269 268 259 255 250 255 256 262 271 273 285 301 308 301 301 310 313 318 322 325 327 339 342 337 333 336 339 338 337 335 335 333 333 333 327 326 321 311 299
182 202 207 250 84 313 271 242 226 244 243 242 254 261 298 306 311 307 303 304 306 317 322 324 325 331 342 342 338 334 340 339 341 340 339 339 335 338 334 337 340 342 337 321
188 186 202 274 133 256 250 186 237 248 244 240 256 280 298 311 314 303 300 308 322 322 325 324 323 328 339 344 340 337 344 343 340 346 345 337 335 338 341 346 350 357 2 358
216 192 226 243 240 282 293 278 264 211 263 245 252 267 290 305 312 317 358 349 334 323 321 320 317 322 333 345 342 342 348 346 345 352 344 338 339 339 347 352 355 4 9 8
227 218 210 214 241 256 265 116 137 132 267 256 195 239 261 322 338 324 320 323 320 314 320 323 316 316 328 344 347 348 351 349 352 351 344 342 347 347 355 4 4 20 15 17
179 201 221 228 239 256 257 159 158 229 284 166 189 212 229 294 297 302 313 311 318 318 307 320 317 313 324 340 349 354 355 353 351 353 348 349 355 359 2 13 14 35 42 43
182 181 208 225 233 248 195 140 216 255 285 207 214 311 315 299 309 307 311 314 313 315 312 307 310 306 313 336 350 359 360 356 355 357 356 358 10 14 18 31 38 43 55 63
220 211 209 204 216 244 195 227 228 240 281 279 297 306 319 304 311 310 314 320 322 320 317 302 301 296 300 326 350 2 5 3 7 11 8 18 27 29 41 48 56 59 59 66
231 244 243 260 249 256 261 263 254 259 265 273 285 296 297 297 310 313 314 319 323 326 333 317 286 285 284 298 344 2 14 14 22 24 34 45 53 52 59 64 61 59 63 66
250 252 244 253 255 268 271 266 262 259 267 273 280 284 299 306 309 314 317 318 325 317 319 320 287 277 274 275 302 351 8 23 32 32 47 64 70 70 68 63 60 62 65 69
243 247 244 245 263 262 259 256 259 267 272 277 276 292 287 294 300 310 303 307 313 307 292 307 296 268 267 264 268 286 335 16 37 46 54 67 80 83 84 81 79 74 75 76
Wind_Speed_850mb
4 7 15 9 6 7 9 13 22 22 11 13 19 39 53 44 49 49 39 28 24 22 23 24 22 18 13 9 9 12 24 40 47 48 44 44 49 47 46 46 52 56 59 50
7 13 7 5 1 5 8 15 13 16 5 9 25 49 54 42 20 12 11 10 19 24 23 22 19 13 10 7 6 18 44 48 35 35 37 41 43 51 48 51 55 65 70 66
15 6 7 3 6 10 14 14 11 11 20 15 25 23 16 6 9 11 12 11 17 20 21 20 18 15 13 13 20 35 55 69 56 53 61 70 76 81 83 85 85 86 82 81
9 8 8 9 12 8 14 6 3 11 15 7 11 12 21 7 12 15 20 23 21 20 17 17 16 18 18 28 36 47 63 77 72 63 69 75 80 82 85 80 78 75 74 92
8 7 9 12 6 9 5 2 7 10 5 7 4 7 15 5 8 15 22 29 28 25 21 19 18 20 26 39 54 69 82 89 72 64 65 70 76 83 84 80 82 84 90 90
2 2 4 6 2 3 3 8 7 3 4 7 8 7 13 8 5 10 10 26 30 26 24 23 21 26 34 40 70 79 67 69 67 67 70 73 77 80 79 77 76 74 74 77
8 9 7 6 7 6 6 9 5 6 5 5 11 6 23 19 5 4 10 11 15 20 19 18 23 21 35 63 64 64 63 68 68 67 68 68 73 77 80 79 77 72 72 72
7 8 11 11 4 4 10 4 6 11 8 8 4 13 9 2 5 12 17 15 13 18 22 26 20 30 56 63 64 63 65 67 65 60 62 65 73 74 73 70 68 70 68 66
5 5 8 4 3 6 9 7 5 3 4 6 10 12 25 17 22 23 22 19 23 14 14 21 27 43 58 61 64 64 63 61 61 72 72 68 67 65 72 76 78 76 78 83
6 7 4 7 1 3 6 3 4 5 9 11 9 8 21 9 2 8 7 2 3 4 25 26 41 58 57 59 62 56 55 63 73 69 61 60 64 63 67 71 73 74 81 75
3 2 7 3 10 3 5 6 8 6 6 9 16 11 3 9 13 6 8 10 11 31 37 40 47 46 48 55 50 56 64 66 64 66 65 61 62 64 67 67 69 70 71 70
3 2 7 11 7 3 2 4 7 8 6 7 7 21 22 13 9 6 17 18 31 33 41 44 40 42 45 46 51 71 70 63 66 67 64 60 61 63 63 64 65 64 71 69
9 5 5 8 4 5 10 13 13 8 5 23 15 18 9 7 14 28 37 35 29 45 41 40 39 39 42 50 67 73 66 67 67 65 64 62 62 63 63 62 62 63 65 66
4 6 13 23 17 5 8 17 22 20 10 19 34 54 51 46 47 42 48 58 50 38 43 40 36 43 45 65 71 68 67 69 65 64 62 62 64 63 64 62 60 60 60 63
2 12 13 25 28 25 27 30 29 30 38 21 50 45 49 50 48 55 66 45 43 55 52 38 40 44 56 69 74 71 70 69 61 60 59 57 57 56 57 60 63 64 60 62
7 6 2 9 16 18 28 38 35 42 48 47 58 61 55 71 52 46 50 46 50 64 56 39 42 48 59 68 71 72 69 63 57 56 53 52 53 55 57 61 60 56 53 53
14 8 7 12 5 6 19 22 38 30 36 37 39 47 37 51 42 50 52 56 48 44 36 41 44 47 56 63 68 68 65 57 54 51 49 49 50 50 52 52 48 46 41 26
13 12 7 9 2 21 17 5 15 24 33 36 40 41 36 44 53 44 35 32 32 30 44 43 42 45 53 60 64 63 59 52 50 48 47 45 45 45 49 47 43 38 35 28
27 15 8 10 19 31 46 35 27 20 25 29 35 30 26 27 22 3 14 28 35 43 48 46 41 41 51 57 62 61 58 52 49 50 45 43 41 44 42 42 41 36 32 28
17 27 15 15 15 18 21 10 13 12 19 24 24 19 13 14 17 21 37 59 59 53 49 44 38 38 46 53 58 58 55 52 51 48 44 41 38 38 37 34 32 32 33 32
12 10 33 29 22 19 23 22 19 11 17 26 29 19 13 9 18 42 60 62 60 55 50 43 40 37 39 46 53 54 53 52 45 41 39 37 34 31 29 28 26 24 27 35
24 20 17 20 20 35 25 24 19 17 13 14 11 9 23 35 47 52 60 61 58 59 52 46 42 35 33 38 49 51 51 49 42 35 34 33 32 28 25 26 25 27 29 36
16 25 18 22 19 20 19 18 37 22 17 23 34 48 60 50 66 58 61 72 71 58 55 43 45 38 28 28 37 45 46 43 41 32 30 30 29 26 26 28 29 31 33 38
21 33 24 24 39 46 52 43 38 39 47 56 62 70 56 51 60 65 65 68 67 54 56 46 35 39 29 22 23 31 40 37 37 32 26 29 36 34 35 37 35 36 41 35
24 24 37 38 52 53 57 55 51 55 61 64 67 58 51 55 58 59 65 60 64 53 59 52 39 36 34 25 17 18 26 35 36 31 27 31 36 42 47 51 50 51 51 48
42 44 30 32 33 37 43 52 56 55 51 48 48 56 58 63 73 76 72 65 64 50 50 65 49 37 36 31 25 15 15 20 28 28 28 33 37 44 51 54 58 58 57 57
Wind_Direction_850mb
60 263 235 12 342 318 298 282 282 292 32 308 275 284 287 288 282 279 273 260 241 218 190 187 188 202 211 249 272 300 314 312 298 288 284 277 272 268 266 260 261 263 266 257
209 240 57 78 141 263 260 288 289 289 15 302 300 294 284 288 264 261 269 199 177 174 181 181 181 186 200 196 274 313 330 323 294 283 277 268 264 258 253 252 251 255 258 256
257 72 124 222 227 263 252 255 295 282 319 265 308 272 279 179 210 233 219 199 183 180 182 186 194 198 200 247 284 300 324 330 312 294 284 279 275 271 268 262 259 258 257 256
266 109 202 227 252 227 277 46 281 297 337 302 13 287 293 265 244 205 206 207 205 204 201 200 209 216 235 265 286 299 313 317 310 295 285 279 273 270 268 266 264 264 264 262
86 179 202 238 265 199 11 348 310 310 296 323 177 229 276 166 228 217 205 209 212 216 218 226 238 250 263 284 300 308 305 305 298 289 282 277 275 275 274 269 265 261 257 252
297 119 240 343 97 260 61 275 226 245 168 242 143 226 286 246 146 156 170 204 214 219 225 233 251 279 293 304 311 308 299 298 295 292 287 280 276 275 275 273 270 267 263 258
172 197 145 194 225 179 244 280 276 249 217 274 146 212 250 282 169 194 168 177 217 216 227 256 278 284 306 315 312 306 303 299 297 292 286 281 279 278 277 275 273 271 268 262
236 231 187 151 265 10 187 297 298 289 287 348 163 240 243 338 345 244 235 234 238 236 247 272 278 299 312 314 311 309 305 298 295 293 289 282 278 276 275 273 269 266 266 266
247 182 117 76 344 308 133 204 55 293 142 271 233 263 268 275 230 243 231 250 249 246 252 265 286 309 312 309 311 310 304 302 297 291 292 288 285 282 277 274 273 274 272 271
43 276 27 90 222 168 283 30 237 172 282 273 232 262 261 263 86 121 151 176 224 295 317 294 299 308 309 312 313 310 303 298 298 295 294 291 290 287 283 284 279 274 266 264
197 248 109 172 198 240 159 227 221 285 241 275 298 268 15 24 21 25 64 356 338 320 313 302 304 308 311 316 314 306 303 304 302 305 308 303 296 293 294 291 287 283 278 271
134 229 231 239 96 47 56 297 241 261 214 254 301 265 307 60 72 6 302 294 304 312 312 308 308 310 316 316 312 314 319 308 315 319 314 312 309 307 304 298 295 289 284 277
174 193 278 184 178 185 223 195 217 224 263 255 263 263 110 4 307 285 293 278 303 313 316 312 310 316 322 318 322 327 321 318 324 323 318 321 318 316 308 306 303 298 291 284
184 206 241 261 317 40 210 207 213 207 234 272 247 282 277 280 277 296 303 316 311 306 315 309 311 322 323 327 332 329 325 329 329 324 327 328 323 318 317 314 308 301 294 287
156 250 231 259 277 282 266 263 246 225 238 247 267 264 287 287 298 301 303 303 311 311 313 316 321 324 330 338 336 333 332 334 334 332 333 330 327 327 325 323 318 312 300 288
174 250 137 262 247 269 268 259 255 250 255 256 262 271 273 285 301 308 301 301 310 313 318 322 325 327 339 342 337 333 336 339 338 337 335 335 333 333 333 327 326 321 311 299
182 202 207 250 84 313 271 242 226 244 243 242 254 261 298 306 311 307 303 304 306 317 322 324 325 331 342 342 338 334 340 339 341 340 339 339 335 338 334 337 340 342 337 321
188 186 202 274 133 256 250 186 237 248 244 240 256 280 298 311 314 303 300 308 322 322 325 324 323 328 339 344 340 337 344 343 340 346 345 337 335 338 341 346 350 357 2 358
216 192 226 243 240 282 293 278 264 211 263 245 252 267 290 305 312 317 358 349 334 323 321 320 317 322 333 345 342 342 348 346 345 352 344 338 339 339 347 352 355 4 9 8
227 218 210 214 241 256 265 116 137 132 267 256 195 239 261 322 338 324 320 323 320 314 320 323 316 316 328 344 347 348 351 349 352 351 344 342 347 347 355 4 4 20 15 17
179 201 221 228 239 256 257 159 158 229 284 166 189 212 229 294 297 302 313 311 318 318 307 320 317 313 324 340 349 354 355 353 351 353 348 349 355 359 2 13 14 35 42 43
182 181 208 225 233 248 195 140 216 255 285 207 214 311 315 299 309 307 311 314 313 315 312 307 310 306 313 336 350 359 360 356 355 357 356 358 10 14 18 31 38 43 55 63
220 211 209 204 216 244 195 227 228 240 281 279 297 306 319 304 311 310 314 320 322 320 317 302 301 296 300 326 350 2 5 3 7 11 8 18 27 29 41 48 56 59 59 66
231 244 243 260 249 256 261 263 254 259 265 273 285 296 297 297 310 313 314 319 323 326 333 317 286 285 284 298 344 2 14 14 22 24 34 45 53 52 59 64 61 59 63 66
250 252 244 253 255 268 271 266 262 259 267 273 280 284 299 306 309 314 317 318 325 317 319 320 287 277 274 275 302 351 8 23 32 32 47 64 70 70 68 63 60 62 65 69
243 247 244 245 263 262 259 256 259 267 272 277 276 292 287 294 300 310 303 307 313 307 292 307 296 268 267 264 268 286 335 16 37 46 54 67 80 83 84 81 79 74 75 76